(228930) = 2003 SC310

Discovered at Socorro on 2003-09-28 by LINEAR.

Orbit

Orbit type: Main Belt

Note: WebGL enabled browser required.

epoch2023-02-25.0
epoch JD2460000.5
perihelion date2020-10-14.10832
perihelion JD2459136.60832
argument of perihelion (°)275.73345
ascending node (°)112.09158
inclination (°)2.50149
eccentricity0.1969808
perihelion distance (AU)2.5415481
Tisserand w.r.t. Jupiter3.2
ΔV w.r.t. Earth (km/sec)10.0
semimajor axis (AU)3.1649904
mean anomaly (°)151.21837
mean daily motion (°/day)0.17504320
aphelion distance (AU)3.788
period (years)5.63
P-vector [x]0.88349867
P-vector [y]0.44520289
P-vector [z]0.14568627
Q-vector [x]-0.46668472
Q-vector [y]0.80969868
Q-vector [z]0.35579969
absolute magnitude16.3
phase slope0.15
uncertainty0
referenceMPO 745323
observations used344
oppositions13
arc length (days)9391
first opposition used1997
last opposition used2023
residual rms (arc-secs)0.77
perturbers coarse indicatorM-v
perturbers precise indicator003Ek
first observation date used1997-07-28.0
last observation date used2023-04-14.0
computer nameMPCLINUX
JD of orbit computation2456937.371330
perihelion JD uncertainty (days)8.5687E-05
argument of perihelion uncertainty (°)1.0025E-04
ascending node uncertainty (°)9.8168E-05
inclination uncertainty (°)3.0093E-06
eccentricity uncertainty 3.6780E-08
perihelion distance uncertainty (AU)1.1872E-07
Minimum Orbit Intersection Distances (in AU)
for orbit epoch: 2460000.5, reference: E2023-G86
Mercury2.20762
Venus1.81707
Earth1.54619
Mars1.09948
Jupiter1.65678
Saturn5.8471
Uranus14.7563
Neptune26.9498

Observations

348 total observations over interval: 1997 07 28.36322 – 2023 04 14.402225
These data are available for download (format description).

Date (UT) J2000 RA J2000 Dec Magn Location Ref
1997 07 28.36322 21 53 43.86 -14 32 40.3 20.5 V 691 – Steward Observatory, Kitt Peak-Spacewatch MPS 137021
1997 07 28.38509 21 53 43.04 -14 32 46.2 20.7 V 691 – Steward Observatory, Kitt Peak-Spacewatch MPS 137021
1997 07 28.40690 21 53 42.21 -14 32 52.2 21.2 V 691 – Steward Observatory, Kitt Peak-Spacewatch MPS 137021
2003 09 28.23569 01 05 36.22 +02 36 18.8 19.4   704 – Lincoln Laboratory ETS, New Mexico MPS 87397
2003 09 28.24908 01 05 35.70 +02 36 15.0 19.6   704 – Lincoln Laboratory ETS, New Mexico MPS 87397
2003 09 28.25799 01 05 35.36 +02 36 12.1 19.2 R 699 – Lowell Observatory-LONEOS MPS 90566
2003 09 28.26178 01 05 35.21 +02 36 11.1 19.5   704 – Lincoln Laboratory ETS, New Mexico MPS 87397
2003 09 28.27128 01 05 34.78 +02 36 07.8   699 – Lowell Observatory-LONEOS MPS 90566
2003 09 28.27438 01 05 34.56 +02 36 06.8 19.7   704 – Lincoln Laboratory ETS, New Mexico MPS 87397
2003 09 28.28458 01 05 34.21 +02 36 04.9   699 – Lowell Observatory-LONEOS MPS 90566
2003 09 28.28755 01 05 34.03 +02 36 03.4 19.1   704 – Lincoln Laboratory ETS, New Mexico MPS 87397
2003 09 28.29793 01 05 33.59 +02 36 02.6   699 – Lowell Observatory-LONEOS MPS 90566
2003 10 01.17042 01 03 34.54 +02 21 59.1 19.4 R 699 – Lowell Observatory-LONEOS MPS 87397
2003 10 01.18546 01 03 33.78 +02 21 51.8   699 – Lowell Observatory-LONEOS MPS 87397
2003 10 01.20041 01 03 33.16 +02 21 49.3   699 – Lowell Observatory-LONEOS MPS 87397
2003 10 01.21542 01 03 32.53 +02 21 44.7   699 – Lowell Observatory-LONEOS MPS 87397
2003 10 19.18674 00 50 33.46 +00 59 15.9 20.0 V 691 – Steward Observatory, Kitt Peak-Spacewatch MPS 96376
2003 10 19.21503 00 50 32.25 +00 59 09.0 19.9 V 691 – Steward Observatory, Kitt Peak-Spacewatch MPS 96376
2003 10 19.24403 00 50 30.99 +00 59 02.4 19.7 V 691 – Steward Observatory, Kitt Peak-Spacewatch MPS 96376
2003 10 19.254580 00 50 30.502 +00 58 59.56 19.48 V 645 – Apache Point-Sloan Digital Sky Survey MPS 137021
2003 10 19.258052 00 50 30.353 +00 58 58.81 20.16   645 – Apache Point-Sloan Digital Sky Survey MPS 137021
2003 10 22.245470 00 48 30.852 +00 47 47.79 19.60 V 645 – Apache Point-Sloan Digital Sky Survey MPS 137021
2003 10 22.248942 00 48 30.704 +00 47 47.11 20.27   645 – Apache Point-Sloan Digital Sky Survey MPS 137021
2003 10 24.23234 00 47 15.21 +00 40 58.7 18.9   704 – Lincoln Laboratory ETS, New Mexico MPS 96376
2003 10 24.240520 00 47 14.878 +00 40 56.99 19.68 V 645 – Apache Point-Sloan Digital Sky Survey MPS 137021
2003 10 24.243992 00 47 14.743 +00 40 56.33 20.35   645 – Apache Point-Sloan Digital Sky Survey MPS 137021
2003 10 24.24554 00 47 14.64 +00 40 56.1 19.7   704 – Lincoln Laboratory ETS, New Mexico MPS 96376
2003 10 24.25842 00 47 14.22 +00 40 54.0 19.5   704 – Lincoln Laboratory ETS, New Mexico MPS 96376
2003 10 24.28420 00 47 13.12 +00 40 48.7 19.7   704 – Lincoln Laboratory ETS, New Mexico MPS 96376
2005 01 15.38581 08 43 13.46 +18 54 05.8 20.8 V 691 – Steward Observatory, Kitt Peak-Spacewatch MPS 125455
2005 01 15.41129 08 43 12.18 +18 54 12.8 20.4 V 691 – Steward Observatory, Kitt Peak-Spacewatch MPS 125455
2005 01 15.43777 08 43 10.83 +18 54 17.9 20.5 V 691 – Steward Observatory, Kitt Peak-Spacewatch MPS 125455
2005 01 19.24859 08 40 00.85 +19 09 01.0 20.7 V 691 – Steward Observatory, Kitt Peak-Spacewatch MPS 125455
2005 01 19.27451 08 39 59.53 +19 09 07.0 20.8 V 691 – Steward Observatory, Kitt Peak-Spacewatch MPS 125455
2005 01 19.29996 08 39 58.20 +19 09 13.0 20.7 V 691 – Steward Observatory, Kitt Peak-Spacewatch MPS 125455
2005 03 04.17602 08 09 44.79 +21 13 24.8 21.5 R G96 – Mt. Lemmon Survey MPS 127183
2005 03 04.18131 08 09 44.72 +21 13 25.3 20.5 R G96 – Mt. Lemmon Survey MPS 127183
2005 03 04.18659 08 09 44.56 +21 13 25.7 20.7 R G96 – Mt. Lemmon Survey MPS 127183
2005 03 04.19186 08 09 44.50 +21 13 26.3 20.9 R G96 – Mt. Lemmon Survey MPS 127183
2009 11 10.23181 04 31 33.47 +18 46 41.9 20.2 V 691 – Steward Observatory, Kitt Peak-Spacewatch MPS 302141
2009 11 10.24901 04 31 32.66 +18 46 41.2 20.1 V 691 – Steward Observatory, Kitt Peak-Spacewatch MPS 302141
2009 11 10.26622 04 31 31.88 +18 46 39.1 20.2 V 691 – Steward Observatory, Kitt Peak-Spacewatch MPS 302141
2009 11 18.13897 04 25 16.98 +18 35 17.5 20.0 V 691 – Steward Observatory, Kitt Peak-Spacewatch MPS 303249
2009 11 18.15661 04 25 16.05 +18 35 16.7 19.9 V 691 – Steward Observatory, Kitt Peak-Spacewatch MPS 303249
2009 11 18.17425 04 25 15.15 +18 35 14.8 20.0 V 691 – Steward Observatory, Kitt Peak-Spacewatch MPS 303249
2009 11 20.91078 04 22 54.24 +18 31 11.0 20.0 V A50 – Andrushivka Astronomical Observatory MPS 304835
2009 11 20.94667 04 22 52.30 +18 31 07.8 18.0 V A50 – Andrushivka Astronomical Observatory MPS 304835
2009 11 22.17709 04 21 48.23 +18 29 18.5 19.7 V 691 – Steward Observatory, Kitt Peak-Spacewatch MPS 304835
2009 11 22.19477 04 21 47.27 +18 29 17.0 19.8 V 691 – Steward Observatory, Kitt Peak-Spacewatch MPS 304835
2009 11 22.21244 04 21 46.40 +18 29 15.8 19.5 V 691 – Steward Observatory, Kitt Peak-Spacewatch MPS 304835
2009 11 26.17227 04 18 16.85 +18 23 26.4 19.4 V 691 – Steward Observatory, Kitt Peak-Spacewatch MPS 304835
2009 11 26.18991 04 18 15.84 +18 23 25.0 19.5 V 691 – Steward Observatory, Kitt Peak-Spacewatch MPS 304835
2009 11 26.20751 04 18 14.90 +18 23 23.8 19.7 V 691 – Steward Observatory, Kitt Peak-Spacewatch MPS 304835
2009 12 11.29227 04 05 29.90 +18 04 34.3 20.2 V 703 – Catalina Sky Survey MPS 307256
2009 12 11.29954 04 05 29.68 +18 04 32.0 19.7 V 703 – Catalina Sky Survey MPS 307256
2009 12 11.30681 04 05 29.18 +18 04 32.8 21.1 V 703 – Catalina Sky Survey MPS 307256
2009 12 11.31405 04 05 28.93 +18 04 31.5 19.4 V 703 – Catalina Sky Survey MPS 307256
2009 12 17.25059 04 01 15.56 +17 59 55.2 19.9 V G96 – Mt. Lemmon Survey MPS 307256
2009 12 17.25765 04 01 15.27 +17 59 54.8 19.8 V G96 – Mt. Lemmon Survey MPS 307256
2009 12 17.26468 04 01 14.98 +17 59 55.0 20.0 V G96 – Mt. Lemmon Survey MPS 307256
2009 12 17.27183 04 01 14.70 +17 59 54.0 19.8 V G96 – Mt. Lemmon Survey MPS 307256
2010 02 15.18806 04 07 20.49 +19 34 04.9 21.0 V G96 – Mt. Lemmon Survey MPS 316604
2010 02 15.19403 04 07 20.78 +19 34 06.7 21.1 V G96 – Mt. Lemmon Survey MPS 316604
2010 02 15.19998 04 07 21.10 +19 34 07.7 21.1 V G96 – Mt. Lemmon Survey MPS 316604
2010 02 15.20589 04 07 21.36 +19 34 08.9 20.9 V G96 – Mt. Lemmon Survey MPS 316604
2010 02 16.417218 04 08 21.04 +19 38 06.7   C51 – WISE MPS 316604
2010 02 16.549649 04 08 27.68 +19 38 32.2   C51 – WISE MPS 331839
2010 02 16.68195 04 08 34.13 +19 38 59.1   C51 – WISE MPS 316604
2010 02 16.814257 04 08 40.86 +19 39 24.1   C51 – WISE MPS 331839
2010 02 16.946561 04 08 47.51 +19 39 49.9   C51 – WISE MPS 331839
2010 02 17.012778 04 08 50.80 +19 40 02.1   C51 – WISE MPS 331839
2010 02 17.14053 04 08 57.15 +19 40 26.0 20.5 V G96 – Mt. Lemmon Survey MPS 316604
2010 02 17.145081 04 08 57.47 +19 40 28.5   C51 – WISE MPS 316604
2010 02 17.14646 04 08 57.40 +19 40 27.4 21.2 V G96 – Mt. Lemmon Survey MPS 316604
2010 02 17.15236 04 08 57.69 +19 40 28.5 20.6 V G96 – Mt. Lemmon Survey MPS 316604
2010 02 17.15830 04 08 58.02 +19 40 29.6 21.1 V G96 – Mt. Lemmon Survey MPS 316604
2010 02 17.211297 04 09 00.83 +19 40 41.8   C51 – WISE MPS 316604
2010 02 17.277385 04 09 04.21 +19 40 53.9   C51 – WISE MPS 331839
2010 02 17.409690 04 09 10.692 +19 41 19.07   C51 – WISE MPS 903585
2010 02 17.409817 04 09 10.89 +19 41 19.6   C51 – WISE MPS 331839
2010 02 17.542122 04 09 17.65 +19 41 46.9   C51 – WISE MPS 316604
2010 02 17.674426 04 09 24.44 +19 42 11.1   C51 – WISE MPS 316604
2011 02 13.41347 10 22 20.56 +12 27 05.4 21.1 V G96 – Mt. Lemmon Survey MPS 371338
2011 02 13.41926 10 22 20.31 +12 27 06.8 20.8 V G96 – Mt. Lemmon Survey MPS 371338
2011 02 13.42499 10 22 20.06 +12 27 09.0 21.5 V G96 – Mt. Lemmon Survey MPS 371338
2011 02 13.43083 10 22 19.74 +12 27 10.3 21.1 V G96 – Mt. Lemmon Survey MPS 371338
2012 04 18.26772 13 33 35.60 -06 08 06.3 21.0 V G96 – Mt. Lemmon Survey MPS 421706
2012 04 18.27807 13 33 35.13 -06 08 04.4 21.3 V G96 – Mt. Lemmon Survey MPS 421706
2012 04 18.28840 13 33 34.70 -06 08 01.5 21.4 V G96 – Mt. Lemmon Survey MPS 421706
2012 04 18.29872 13 33 34.20 -06 07 59.4 21.1 V G96 – Mt. Lemmon Survey MPS 421706
